Location: Grantham
(50.0698°N, 112.0083°W)
Time: 07:59:32
(UTC+00:00)

Envisat - Visible Passes

Search period start: 04 December 2021 00:00
Search period end: 14 December 2021 00:00
Orbit: 764 x 766 km, 98.2° (Epoch: 03 December)

Date Brightness Start Highest point End Pass type
(mag) Time Alt. Az. Time Alt. Az. Time Alt. Az.
04 Dec 4.6 00:09:57 10° SSW 00:14:41 40° W 00:19:29 10° NNW visible
04 Dec 3.8 12:13:37 10° NNE 12:18:36 51° E 12:23:32 10° S visible
04 Dec 3.9 13:53:07 10° N 13:57:21 27° WNW 14:01:35 10° WSW visible
05 Dec 6.1 01:15:31 10° WSW 01:17:33 12° W 01:19:36 10° WNW visible
05 Dec 5.0 11:37:15 10° NE 11:41:29 26° E 11:45:40 10° SSE visible
05 Dec 3.1 13:15:50 10° N 13:20:45 51° WNW 13:25:39 10° SW visible
06 Dec 5.5 00:36:04 10° SSW 00:40:12 25° W 00:44:22 10° NW visible
06 Dec 5.9 11:01:52 10° ENE 11:04:08 13° E 11:06:24 10° ESE visible
06 Dec 3.0 12:38:50 10° NNE 12:43:58 83° ESE 12:49:03 10° SSW visible
06 Dec 4.3 14:18:59 10° NNW 14:22:22 18° WNW 14:25:45 10° W visible
06 Dec 4.2 23:58:09 10° S 00:03:04 49° W 00:08:01 10° NNW visible
07 Dec 4.2 12:02:09 10° NNE 12:06:58 41° E 12:11:46 10° SSE visible
07 Dec 3.6 13:41:24 10° N 13:45:54 32° WNW 13:50:23 10° SW visible
08 Dec 5.9 01:02:52 10° WSW 01:05:49 15° W 01:08:48 10° NW visible
08 Dec 5.3 11:25:57 10° NE 11:29:48 21° E 11:33:36 10° SE visible
08 Dec 2.9 13:04:12 10° N 13:09:14 62° WNW 13:14:15 10° SSW visible
09 Dec 5.1 00:24:05 10° SSW 00:28:32 30° W 00:33:02 10° NNW visible
09 Dec 6.1 10:52:22 10° E 10:52:23 10° E 10:52:25 10° E visible
09 Dec 3.3 12:27:18 10° NNE 12:32:23 68° ESE 12:37:27 10° S visible
09 Dec 4.1 14:07:08 10° N 14:10:57 22° WNW 14:14:45 10° WSW visible
10 Dec 4.6 11:50:44 10° NNE 11:55:20 34° E 11:59:55 10° SSE visible
10 Dec 3.4 13:29:42 10° N 13:34:26 39° WNW 13:39:07 10° SW visible
11 Dec 5.8 00:50:33 10° SW 00:54:06 19° W 00:57:42 10° NW visible
11 Dec 5.6 11:14:47 10° NE 11:18:05 17° E 11:21:23 10° SE visible
11 Dec 2.8 12:52:36 10° NNE 12:57:42 76° WNW 13:02:46 10° SSW visible
11 Dec 4.5 14:33:14 10° NNW 14:35:54 14° NW 14:38:35 10° W visible
12 Dec 4.7 00:12:12 10° SSW 00:16:54 37° W 00:21:37 10° NNW visible
12 Dec 3.6 12:15:47 10° NNE 12:20:48 54° E 12:25:46 10° S visible
12 Dec 3.9 13:55:22 10° N 13:59:31 26° WNW 14:03:38 10° WSW visible
13 Dec 6.2 01:18:10 10° WSW 01:19:48 11° W 01:21:25 10° WNW visible
13 Dec 4.9 11:39:21 10° NE 11:43:41 27° E 11:48:00 10° SSE visible
13 Dec 3.2 13:18:02 10° N 13:22:56 48° WNW 13:27:47 10° SW visible
